This demonstration page uses our WeatherBlox Daily Observations layout. Learn more.

Left ArrowRight Arrow

44.89941, -97.11507

Hourly Observations for June 5, 2021

Temp ( °F °C ) Dew Point ( °F °C ) Humidity (%) Winds ( mph kmh ) Pressure ( in mb ) Visibility ( mi km ) Precip ( " mm )
12:53 am 00:53 Clear 75 23.9 58 14.4 55 55 S 13 20 29.61 1003 10 16 0.00 0.00
1:53 am 01:53 Clear 75 23.9 57 13.9 54 54 SSW 12 19 29.61 1003 10 16 0.00 0.00
2:53 am 02:53 Clear 74 23.3 58 14.4 57 57 S 9 15 29.61 1003 10 16 0.00 0.00
3:53 am 03:53 Clear 71 21.7 56 13.3 59 59 S 8 13 29.62 1003 10 16 0.00 0.00
4:53 am 04:53 Clear 70 21.1 56 13.3 61 61 S 8 13 29.63 1003 10 16 0.00 0.00
5:53 am 05:53 Sunny 67 19.4 57 13.9 71 71 S 8 13 29.64 1004 10 16 0.00 0.00
6:53 am 06:53 Sunny 69 20.6 57 13.9 66 66 SSE 8 13 29.64 1004 10 16 0.00 0.00
7:53 am 07:53 Sunny 72 22.2 58 14.4 61 61 S 9 15 29.64 1004 10 16 0.00 0.00
8:53 am 08:53 Sunny 77 25 59 15 54 54 S 9 15 29.64 1004 10 16 0.00 0.00
9:53 am 09:53 Sunny 82 27.8 58 14.4 44 44 S 10 17 29.64 1004 10 16 0.00 0.00
10:53 am 10:53 Sunny 85 29.4 59 15 42 42 S 8 13 29.63 1003 10 16 0.00 0.00
11:53 am 11:53 Sunny 86 30 61 16.1 43 43 S 6 9 29.63 1003 10 16 0.00 0.00
12:53 pm 12:53 Sunny 88 31.1 63 17.2 43 43 S 7 11 29.62 1003 10 16 0.00 0.00
1:53 pm 13:53 Sunny 94 34.4 61 16.1 33 33 SSW 8 13 29.60 1002 10 16 0.00 0.00
2:53 pm 14:53 Sunny 97 36.1 59 15 28 28 SSW 15 24 29.58 1002 10 16 0.00 0.00
3:53 pm 15:53 Sunny 98 36.7 57 13.9 25 25 SW 16 26 29.57 1002 10 16 0.00 0.00
4:53 pm 16:53 Sunny 98 36.7 55 12.8 24 24 SW 10 17 29.56 1001 10 16 0.00 0.00
5:53 pm 17:53 Sunny 97 36.1 58 14.4 27 27 SSW 16 26 29.54 1001 10 16 0.00 0.00
6:53 pm 18:53 Sunny 94 34.4 57 13.9 29 29 S 14 22 29.54 1000 10 16 0.00 0.00
7:53 pm 19:53 Sunny 89 31.7 58 14.4 35 35 S 12 19 29.55 1001 10 16 0.00 0.00
8:53 pm 20:53 Sunny 87 30.6 57 13.9 36 36 S 12 19 29.54 1001 10 16 0.00 0.00
9:53 pm 21:53 Clear 82 27.8 58 14.4 44 44 S 9 15 29.55 1001 10 16 0.00 0.00
10:53 pm 22:53 Clear 84 28.9 58 14.4 41 41 S 14 22 29.56 1001 10 16 0.00 0.00
11:53 pm 23:53 Clear 82 27.8 59 15 46 46 S 16 26 29.56 1001 10 16 0.00 0.00

Powered by AerisWeather